Soldotna, AK

10:30 PM AKDT on September 19, 2017 (GMT -0800)
Soldotna

Weather History for PASX - May, 2013

Change the Weather History Date:

Friday, May 24, 2013

  Actual Average Record
Temperature  
Mean Temperature 48 °F -  
Max Temperature 62 °F 56 °F 82 °F (1969)
Min Temperature 35 °F 37 °F 28 °F (1998)
Degree Days  
Heating Degree Days 16    
Moisture  
Dew Point 37 °F    
Average Humidity 59    
Maximum Humidity 87    
Minimum Humidity 39    
Precipitation  
Precipitation 0.00 in - - ()
Sea Level Pressure  
Sea Level Pressure 30.02 in    
Wind  
Wind Speed 4 mph (West)    
Max Wind Speed 16 mph    
Max Gust Speed 20 mph    
Visibility 10 miles    
Events      
Averages and records for this station are not official NWS values.
T = Trace of Precipitation, MM = Missing Value Source: NWS Daily Summary

Daily Weather History Graph

Daily Weather History Graph

Search for Another Location

Airport or City:

Trip Planner

Search our weather history database for the weather conditions in past years. The results will help you decide how hot, cold, wet, or windy it might be!

Date:

Astronomy

May. 24, 2013 Rise Set
Actual Time 5:01 AM AKDT 11:01 PM AKDT
Civil Twilight 3:44 AM AKDT 12:20 AM AKDT
Nautical Twilight Sun does not set Sun does not set
Astronomical Twilight Sun does not set Sun does not set
Moon 10:46 PM AKDT (5/24) 5:00 AM AKDT (5/24)
Length of Visible Light 20h 35m
Length of Day
17h 59m
Full, 100% of the Moon is Illuminated
May 24
Full
May 24
Full
May 31
Last Quarter
Jun 8
New
Jun 16
First Quarter

Hourly Weather History & Observations

Time (AKDT) Temp. Windchill Dew Point Humidity Pressure Visibility Wind Dir Wind Speed Gust Speed Precip Events Conditions
12:16 AM 41.0 °F - 33.8 °F 76% 30.10 in 10.0 mi Calm Calm - N/A   Clear
12:36 AM 39.2 °F - 33.8 °F 81% 30.10 in 10.0 mi Calm Calm - N/A   Mostly Cloudy
12:56 AM 37.4 °F - 30.2 °F 75% 30.10 in 10.0 mi Calm Calm - N/A   Scattered Clouds
1:16 AM 35.6 °F - 30.2 °F 81% 30.10 in 10.0 mi Calm Calm - N/A   Clear
1:36 AM 37.4 °F - 30.2 °F 75% 30.10 in 10.0 mi Calm Calm - N/A   Mostly Cloudy
1:56 AM 37.4 °F 34.9 °F 33.8 °F 87% 30.10 in 10.0 mi ENE 3.5 mph - N/A   Overcast
2:16 AM 39.2 °F - 33.8 °F 81% 30.10 in 10.0 mi Calm Calm - N/A   Overcast
2:36 AM 39.2 °F - 33.8 °F 81% 30.09 in 10.0 mi Calm Calm - N/A   Overcast
2:56 AM 39.2 °F - 33.8 °F 81% 30.09 in 10.0 mi Calm Calm - N/A   Overcast
3:16 AM 39.2 °F 37.0 °F 35.6 °F 87% 30.09 in 10.0 mi ENE 3.5 mph - N/A   Overcast
3:36 AM 39.2 °F - 35.6 °F 87% 30.09 in 10.0 mi Calm Calm - N/A   Overcast
3:56 AM 39.2 °F - 33.8 °F 81% 30.09 in 10.0 mi Calm Calm - N/A   Overcast
4:16 AM 41.0 °F - 35.6 °F 81% 30.08 in 10.0 mi Calm Calm - N/A   Overcast
4:36 AM 39.2 °F - 35.6 °F 87% 30.07 in 10.0 mi Calm Calm - N/A   Overcast
4:56 AM 39.2 °F - 35.6 °F 87% 30.07 in 10.0 mi Calm Calm - N/A   Overcast
5:16 AM 41.0 °F - 35.6 °F 81% 30.07 in 10.0 mi Calm Calm - N/A   Overcast
5:36 AM 39.2 °F - 35.6 °F 87% 30.07 in 10.0 mi Calm Calm - N/A   Overcast
5:56 AM 41.0 °F - 35.6 °F 81% 30.07 in 10.0 mi Calm Calm - N/A   Overcast
6:16 AM 42.8 °F - 35.6 °F 76% 30.06 in 10.0 mi Calm Calm - N/A   Mostly Cloudy
6:36 AM 42.8 °F - 37.4 °F 81% 30.06 in 10.0 mi Calm Calm - N/A   Mostly Cloudy
6:56 AM 44.6 °F - 37.4 °F 76% 30.06 in 10.0 mi Calm Calm - N/A   Overcast
7:16 AM 46.4 °F 45.2 °F 37.4 °F 71% 30.06 in 10.0 mi WSW 3.5 mph - N/A   Overcast
7:36 AM 46.4 °F 44.3 °F 39.2 °F 76% 30.06 in 10.0 mi West 4.6 mph - N/A   Mostly Cloudy
7:56 AM 48.2 °F - 37.4 °F 66% 30.06 in 10.0 mi WSW 3.5 mph - N/A   Partly Cloudy
8:16 AM 48.2 °F - 37.4 °F 66% 30.06 in 10.0 mi Calm Calm - N/A   Clear
8:36 AM 48.2 °F - 37.4 °F 66% 30.05 in 10.0 mi Calm Calm - N/A   Clear
8:56 AM 51.8 °F - 39.2 °F 62% 30.05 in 10.0 mi West 6.9 mph - N/A   Clear
9:16 AM 51.8 °F - 37.4 °F 58% 30.05 in 10.0 mi West 4.6 mph - N/A   Clear
9:36 AM 51.8 °F - 37.4 °F 58% 30.04 in 10.0 mi NW 3.5 mph - N/A   Clear
9:56 AM 53.6 °F - 37.4 °F 54% 30.04 in 10.0 mi West 4.6 mph - N/A   Clear
10:16 AM 53.6 °F - 37.4 °F 54% 30.03 in 10.0 mi WNW 4.6 mph - N/A   Clear
10:36 AM 55.4 °F - 37.4 °F 51% 30.03 in 10.0 mi NW 6.9 mph - N/A   Clear
10:56 AM 55.4 °F - 37.4 °F 51% 30.03 in 10.0 mi West 8.1 mph - N/A   Clear
11:16 AM 55.4 °F - 37.4 °F 51% 30.02 in 10.0 mi WSW 8.1 mph - N/A   Clear
11:36 AM 55.4 °F - 39.2 °F 54% 30.02 in 10.0 mi West 10.4 mph - N/A   Clear
11:56 AM 55.4 °F - 37.4 °F 51% 30.02 in 10.0 mi WSW 13.8 mph - N/A   Clear
12:16 PM 57.2 °F - 39.2 °F 51% 30.02 in 10.0 mi West 13.8 mph - N/A   Clear
12:36 PM 57.2 °F - 39.2 °F 51% 30.02 in 10.0 mi West 11.5 mph - N/A   Clear
12:56 PM 57.2 °F - 39.2 °F 51% 30.01 in 10.0 mi WSW 9.2 mph - N/A   Clear
1:16 PM 57.2 °F - 39.2 °F 51% 30.00 in 10.0 mi WSW 12.7 mph - N/A   Clear
1:36 PM 59.0 °F - 39.2 °F 48% 30.00 in 10.0 mi West 11.5 mph - N/A   Clear
1:56 PM 60.8 °F - 37.4 °F 42% 30.00 in 10.0 mi WNW 10.4 mph - N/A   Clear
2:16 PM 60.8 °F - 37.4 °F 42% 29.99 in 10.0 mi West 13.8 mph 18.4 mph N/A   Clear
2:36 PM 60.8 °F - 37.4 °F 42% 29.99 in 10.0 mi West 13.8 mph - N/A   Clear
2:56 PM 60.8 °F - 37.4 °F 42% 29.99 in 10.0 mi WNW 12.7 mph - N/A   Clear
3:16 PM 60.8 °F - 37.4 °F 42% 29.99 in 10.0 mi West 13.8 mph 18.4 mph N/A   Clear
3:36 PM 60.8 °F - 37.4 °F 42% 29.99 in 10.0 mi West 15.0 mph - N/A   Clear
3:56 PM 60.8 °F - 35.6 °F 39% 29.98 in 10.0 mi West 13.8 mph - N/A   Clear
4:16 PM 60.8 °F - 37.4 °F 42% 29.98 in 10.0 mi West 13.8 mph - N/A   Clear
4:36 PM 60.8 °F - 37.4 °F 42% 29.98 in 10.0 mi West 13.8 mph - N/A   Clear
4:56 PM 62.6 °F - 37.4 °F 39% 29.98 in 10.0 mi West 13.8 mph 18.4 mph N/A   Clear
5:16 PM 62.6 °F - 37.4 °F 39% 29.98 in 10.0 mi WNW 11.5 mph - N/A   Clear
5:36 PM 62.6 °F - 37.4 °F 39% 29.98 in 10.0 mi WNW 12.7 mph - N/A   Clear
5:56 PM 60.8 °F - 37.4 °F 42% 29.98 in 10.0 mi West 16.1 mph - N/A   Clear
6:16 PM 60.8 °F - 37.4 °F 42% 29.98 in 10.0 mi West 13.8 mph 19.6 mph N/A   Clear
6:36 PM 60.8 °F - 39.2 °F 45% 29.97 in 10.0 mi West 11.5 mph - N/A   Clear
6:56 PM 60.8 °F - 37.4 °F 42% 29.97 in 10.0 mi West 12.7 mph - N/A   Scattered Clouds
7:16 PM 60.8 °F - 37.4 °F 42% 29.97 in 10.0 mi West 12.7 mph - N/A   Partly Cloudy
7:36 PM 60.8 °F - 37.4 °F 42% 29.97 in 10.0 mi West 13.8 mph - N/A   Clear
7:56 PM 60.8 °F - 37.4 °F 42% 29.96 in 10.0 mi West 11.5 mph - N/A   Clear
8:16 PM 60.8 °F - 37.4 °F 42% 29.97 in 10.0 mi West 10.4 mph - N/A   Partly Cloudy
8:36 PM 57.2 °F - 37.4 °F 48% 29.97 in 10.0 mi West 11.5 mph - N/A   Mostly Cloudy
8:56 PM 57.2 °F - 37.4 °F 48% 29.97 in 10.0 mi West 10.4 mph - N/A   Mostly Cloudy
9:16 PM 55.4 °F - 37.4 °F 51% 29.97 in 10.0 mi West 10.4 mph - N/A   Mostly Cloudy
9:36 PM 55.4 °F - 37.4 °F 51% 29.97 in 10.0 mi West 6.9 mph - N/A   Overcast
9:56 PM 53.6 °F - 37.4 °F 54% 29.98 in 10.0 mi West 6.9 mph - N/A   Scattered Clouds
10:16 PM 53.6 °F - 37.4 °F 54% 29.98 in 10.0 mi Calm Calm - N/A   Scattered Clouds
10:36 PM 53.6 °F - 37.4 °F 54% 29.98 in 10.0 mi West 4.6 mph - N/A   Overcast
10:56 PM 53.6 °F - 37.4 °F 54% 29.98 in 10.0 mi Calm Calm - N/A   Overcast
11:16 PM 51.8 °F - 35.6 °F 54% 29.98 in 10.0 mi WSW 3.5 mph - N/A   Overcast
11:36 PM 51.8 °F - 35.6 °F 54% 29.98 in 10.0 mi Calm Calm - N/A   Mostly Cloudy
11:56 PM 51.8 °F - 35.6 °F 54% 29.99 in 10.0 mi Calm Calm - N/A   Mostly Cloudy